• MPC Preparation (Info)

  • MPEC 2022-Q130 : 2022 QK5

    The following Minor Planet Electronic Circular may be linked-to from your own Web pages, but must not otherwise be redistributed electronically.

    A form allowing access to any MPEC is at the bottom of this page.


    Read MPEC 2022-Q129 Read MPEC 2022-Q131


    M.P.E.C. 2022-Q130                              Issued 2022 August 26, 11:20 UT
    
         The Minor Planet Electronic Circulars contain information on unusual
             minor planets and routine data on comets.  They are published
        on behalf of Division F of the International Astronomical Union by the
              Minor Planet Center, Smithsonian Astrophysical Observatory,
                              Cambridge, MA 02138, U.S.A.
    
                 Prepared using the Tamkin Foundation Computer Network
    
                                  MPC@CFA.HARVARD.EDU
                URL https://www.minorplanetcenter.net/    ISSN 1523-6714
    
                                    2022 QK5                                 
    
    
    Observations:
         K22Q05K* C2022 08 20.38171521 01 30.694-33 16 54.85         21.42wUEQ130F51
         K22Q05K  C2022 08 20.39153821 01 29.753-33 16 54.89         20.95wUEQ130F51
         K22Q05K  C2022 08 20.40134621 01 28.826-33 16 55.16         21.48wUEQ130F51
         K22Q05K  C2022 08 20.41117521 01 27.906-33 16 55.10         21.40wUEQ130F51
         K22Q05K |C2022 08 21.06868 21 00 30.81 -33 16 46.0          21.4 VuEQ130807
         K22Q05K |C2022 08 21.07286 21 00 30.42 -33 16 45.8          21.4 VuEQ130807
         K22Q05K |C2022 08 21.07816 21 00 29.98 -33 16 46.1          21.2 VuEQ130807
         K22Q05K ^C2022 08 22.30743520 58 42.477-33 16 27.03         21.73GVEQ130568
         K22Q05K ^C2022 08 22.30841920 58 42.386-33 16 27.06         21.78GVEQ130568
         K22Q05K ^C2022 08 22.30939620 58 42.293-33 16 26.97         21.77GVEQ130568
         K22Q05K |C2022 08 26.13223 20 53 14.74 -33 10 00.4          21.5 GVEQ130807
         K22Q05K |C2022 08 26.14110 20 53 13.94 -33 09 59.0          21.2 GVEQ130807
         K22Q05K |C2022 08 26.14999 20 53 13.15 -33 09 57.6          21.0 GVEQ130807
    
    Observer details:
    568 Mauna Kea.  Observers R. Wainscoat, H. Januszewski, T. Burdullis.
        Measurers R. Weryk, R. Wainscoat.  3.6-m Canada-France-Hawaii Telescope +
        CCD.
    807 Cerro Tololo Observatory, La Serena.  Observers T. Linder, R. Holmes, L.
        Horn.  0.61-m f/6.5 Dall-Kirkham Astrograph + CCD, 1.00-m f/10.0
        astrograph + CCD.
    F51 Pan-STARRS 1, Haleakala.  Observers J. Bulger, T. Lowe, A. Schultz, I.
        Smith.  Measurers K. Chambers, S. Chastel, T. de Boer, J. Fairlamb, H.
        Gao, M. Huber, C.-C. Lin, E. Magnier, Y. Ramanjooloo, R. Wainscoat, R.
        Weryk.  1.8-m Ritchey-Chretien + CCD.
    
    Orbital elements:
    2022 QK5                                                 Earth MOID = 0.2015 AU
    Epoch 2022 Aug. 9.0 TT = JDT 2459800.5                  Veres                   
    M 332.60781              (2000.0)            P               Q                  
    n   0.24985971     Peri.   24.54386     +0.82399016     -0.56611186             
    a   2.4965402      Node    10.03734     +0.49489275     +0.69878504             
    e   0.5240042      Incl.    7.78641     +0.27590103     +0.43728347             
    P   3.94           H   20.78          G   0.15           U   7                  
    Residuals in seconds of arc
    220820 F51  0.0   0.0     220821 807  0.2+  0.1-    220826 807  0.0   0.0
    220820 F51  0.1-  0.1+    220821 807 (0.9+  0.3-)   220826 807  0.1-  0.0
    220820 F51  0.1-  0.0     220822 568  0.0   0.0     220826 807  0.1+  0.0
    220820 F51  0.0   0.1+    220822 568  0.0   0.0
    220821 807  0.3+  0.4-    220822 568  0.0   0.0
    
    Ephemeris:
    2022 QK5                 a,e,i = 2.50, 0.52, 8                   q = 1.1883
    Date    TT    R. A. (2000) Decl.     Delta      r    Elong.  Phase     V
    2022 07 27    21 31 58.4 -31 27 39   0.7621  1.7525   160.5    11.2    22.1
    ...
    2022 08 11    21 14 59.0 -32 55 45   0.6580  1.6528   162.4    10.7    21.6
    ...
    2022 08 19    21 03 32.2 -33 15 58   0.6195  1.6005   156.9    14.4    21.6
    ...
    2022 08 25    20 54 50.1 -33 12 37   0.5979  1.5619   151.3    18.1    21.6
    2022 08 26    20 53 25.8 -33 10 20   0.5949  1.5555   150.3    18.8    21.6
    2022 08 27    20 52 02.8 -33 07 33   0.5920  1.5492   149.3    19.5    21.6
    ...
    2022 09 02    20 44 22.9 -32 40 03   0.5777  1.5115   143.1    23.6    21.6
    ...
    2022 09 10    20 36 36.2 -31 35 33   0.5655  1.4628   135.0    29.1    21.6
    ...
    2022 09 25    20 32 16.7 -28 20 48   0.5575  1.3776   121.3    38.5    21.7
    
    M. P. C. Staff               (C) Copyright 2022 MPC           M.P.E.C. 2022-Q130
    


    Read MPEC 2022-Q129 Read MPEC 2022-Q131


    MPEC number:

    Enter an MPEC number in one of the following forms:

    • 1997-B01 (the full form)
    • J97B01 (the packed version of the full form)
    • B01 (the abbreviated form)